Temp
-12 -12 -12 -12 -12 -12 -12 -13 -13 -13 -13 -12 -12 -12 -12 -12 -12 -12 -12 -12 -12 -12 -12 -13 -13 -13 -13 -13 -13 -13 -13 -13 -13 -13 -13 -13 -13 -13 -13 -13 -13 -13 -13
-12 -12 -12 -12 -12 -12 -12 -13 -13 -13 -13 -13 -12 -12 -12 -12 -12 -12 -12 -12 -12 -13 -13 -13 -13 -13 -13 -13 -13 -13 -12 -13 -13 -13 -13 -13 -13 -13 -13 -13 -13 -13 -13
-12 -12 -12 -12 -12 -12 -13 -13 -13 -13 -13 -13 -13 -12 -12 -12 -12 -12 -12 -12 -13 -13 -13 -13 -13 -13 -13 -13 -13 -13 -12 -13 -13 -13 -13 -13 -13 -13 -13 -13 -13 -14 -14
-12 -12 -13 -13 -12 -13 -13 -13 -13 -14 -13 -13 -13 -13 -13 -13 -13 -13 -13 -13 -13 -13 -13 -13 -13 -13 -13 -13 -13 -13 -13 -13 -13 -13 -13 -13 -13 -13 -14 -14 -14 -14 -14
-13 -13 -13 -13 -12 -12 -12 -13 -13 -13 -13 -13 -13 -13 -13 -13 -13 -13 -13 -13 -13 -13 -13 -13 -13 -13 -13 -13 -13 -13 -13 -13 -13 -13 -13 -13 -13 -13 -13 -14 -14 -14 -14
-12 -13 -13 -13 -12 -12 -12 -13 -13 -13 -13 -13 -13 -12 -12 -13 -13 -13 -13 -13 -14 -14 -13 -13 -13 -13 -13 -13 -13 -13 -13 -13 -13 -13 -13 -13 -13 -13 -14 -14 -14 -14 -14
-11 -12 -12 -12 -13 -12 -13 -13 -13 -13 -13 -13 -12 -12 -13 -13 -13 -14 -14 -14 -14 -14 -14 -14 -14 -13 -13 -13 -13 -13 -13 -14 -13 -14 -14 -13 -13 -13 -14 -14 -14 -14 -14
-11 -12 -12 -12 -12 -12 -12 -12 -13 -13 -13 -13 -13 -13 -13 -13 -13 -14 -14 -14 -14 -14 -14 -14 -14 -14 -14 -13 -13 -14 -14 -14 -14 -14 -14 -14 -14 -14 -14 -14 -14 -15 -15
-12 -12 -12 -12 -12 -12 -12 -12 -12 -13 -13 -13 -13 -13 -13 -13 -14 -14 -14 -14 -15 -15 -14 -14 -14 -14 -14 -14 -14 -14 -14 -14 -14 -14 -14 -14 -14 -14 -15 -15 -15 -15 -15
-12 -12 -12 -13 -13 -12 -13 -12 -13 -13 -13 -13 -13 -13 -13 -14 -14 -14 -14 -15 -15 -15 -15 -14 -14 -14 -14 -14 -14 -14 -14 -14 -14 -14 -14 -15 -15 -15 -15 -15 -15 -15 -15
-12 -12 -12 -12 -12 -13 -13 -13 -13 -12 -13 -13 -14 -14 -14 -14 -14 -14 -15 -15 -15 -15 -15 -15 -15 -15 -14 -14 -14 -15 -15 -14 -15 -15 -15 -15 -15 -15 -15 -15 -15 -15 -16
-12 -12 -12 -12 -12 -12 -12 -13 -13 -13 -13 -13 -14 -14 -14 -14 -15 -15 -15 -15 -14 -14 -14 -14 -15 -15 -15 -15 -15 -15 -15 -15 -15 -15 -16 -15 -15 -15 -15 -15 -15 -15 -16
-13 -13 -13 -13 -12 -12 -13 -13 -13 -14 -13 -13 -14 -14 -14 -15 -15 -15 -15 -15 -14 -14 -14 -14 -15 -15 -15 -15 -15 -15 -15 -15 -15 -16 -16 -16 -16 -15 -15 -15 -15 -16 -17
-14 -14 -14 -14 -13 -13 -13 -13 -13 -13 -14 -14 -14 -14 -14 -14 -15 -15 -15 -15 -14 -14 -14 -15 -15 -15 -15 -15 -15 -15 -16 -16 -16 -16 -16 -16 -16 -16 -16 -15 -16 -16 -18
-14 -13 -13 -14 -13 -13 -13 -14 -13 -13 -14 -15 -15 -15 -14 -15 -15 -15 -15 -15 -15 -14 -14 -14 -15 -15 -15 -15 -15 -15 -15 -15 -15 -16 -16 -16 -16 -16 -16 -16 -17 -18 -19
-14 -14 -13 -12 -13 -13 -14 -13 -13 -14 -13 -14 -14 -14 -15 -15 -15 -15 -15 -15 -15 -15 -15 -15 -15 -15 -15 -15 -15 -15 -15 -16 -16 -16 -16 -16 -16 -17 -17 -17 -18 -18 -19
-14 -14 -14 -14 -14 -13 -13 -13 -13 -13 -14 -14 -14 -15 -15 -15 -15 -15 -15 -15 -15 -15 -15 -15 -15 -15 -15 -15 -16 -15 -16 -16 -17 -16 -16 -16 -17 -17 -17 -18 -19 -18 -19
-14 -14 -14 -13 -14 -13 -12 -13 -13 -14 -14 -14 -15 -15 -15 -15 -15 -15 -15 -14 -15 -16 -15 -15 -15 -15 -16 -16 -16 -16 -16 -16 -17 -17 -17 -17 -17 -17 -18 -18 -19 -19 -20
-14 -14 -14 -14 -13 -14 -13 -13 -14 -14 -14 -14 -15 -15 -15 -14 -14 -15 -15 -15 -15 -15 -16 -16 -16 -16 -16 -15 -15 -15 -15 -15 -17 -16 -17 -17 -17 -18 -18 -19 -19 -19 -20
-14 -14 -14 -14 -14 -14 -13 -14 -14 -14 -14 -14 -15 -14 -14 -14 -14 -15 -15 -15 -15 -15 -15 -16 -16 -16 -16 -16 -16 -16 -15 -16 -16 -16 -17 -17 -18 -19 -19 -19 -19 -19 -20
-14 -14 -14 -15 -15 -14 -14 -14 -14 -15 -14 -14 -14 -14 -14 -15 -15 -15 -15 -15 -16 -16 -16 -16 -16 -16 -16 -16 -17 -16 -16 -15 -16 -16 -17 -18 -18 -19 -20 -19 -19 -19 -20
-13 -14 -13 -14 -14 -14 -14 -14 -15 -15 -15 -15 -15 -15 -15 -16 -16 -16 -15 -15 -16 -16 -16 -16 -16 -16 -17 -16 -16 -16 -15 -16 -16 -17 -18 -18 -19 -19 -20 -20 -20 -20 -20
-14 -13 -14 -15 -14 -14 -15 -14 -15 -15 -16 -16 -16 -16 -16 -16 -16 -15 -16 -16 -16 -16 -16 -16 -15 -16 -17 -17 -16 -16 -16 -17 -17 -17 -17 -18 -18 -19 -20 -21 -20 -20 -21
-15 -14 -15 -15 -15 -15 -15 -15 -15 -16 -16 -16 -16 -16 -16 -17 -16 -16 -16 -16 -16 -16 -16 -16 -16 -17 -18 -17 -17 -17 -17 -16 -17 -17 -18 -19 -19 -20 -20 -20 -21 -21 -21
-16 -15 -15 -15 -15 -14 -15 -15 -16 -16 -16 -17 -17 -17 -17 -17 -17 -17 -16 -17 -17 -16 -17 -17 -17 -18 -18 -17 -18 -18 -18 -18 -19 -19 -19 -19 -20 -20 -21 -21 -21 -21 -21
-15 -15 -15 -15 -15 -15 -15 -16 -16 -16 -17 -17 -17 -17 -17 -17 -17 -17 -17 -18 -18 -18 -18 -18 -18 -18 -18 -19 -19 -19 -19 -19 -19 -19 -20 -20 -20 -21 -21 -22 -21 -21 -22
Height
5802 5803 5804 5805 5806 5809 5813 5815 5817 5818 5819 5819 5820 5822 5823 5825 5826 5827 5827 5828 5828 5829 5829 5830 5830 5829 5828 5827 5827 5825 5825 5824 5824 5824 5824 5825 5824 5825 5827 5827 5828 5828 5829
5796 5797 5799 5801 5802 5803 5806 5810 5812 5813 5814 5815 5815 5816 5817 5819 5820 5821 5821 5822 5823 5823 5823 5823 5823 5823 5823 5822 5820 5819 5820 5819 5820 5820 5820 5820 5820 5820 5820 5821 5823 5824 5824
5790 5791 5793 5795 5797 5798 5801 5804 5806 5808 5809 5810 5811 5812 5813 5814 5815 5816 5816 5817 5817 5817 5818 5817 5817 5817 5817 5816 5816 5815 5815 5814 5813 5815 5815 5815 5815 5815 5815 5816 5817 5818 5819
5784 5785 5787 5788 5789 5792 5795 5798 5800 5801 5803 5804 5805 5806 5808 5809 5810 5811 5811 5812 5812 5811 5812 5812 5811 5810 5811 5810 5809 5809 5808 5808 5807 5807 5809 5809 5809 5809 5810 5811 5811 5812 5811
5777 5779 5781 5782 5783 5786 5789 5792 5794 5795 5796 5798 5799 5801 5802 5803 5804 5805 5806 5806 5806 5806 5806 5806 5805 5805 5805 5804 5803 5803 5803 5802 5801 5801 5802 5802 5803 5803 5804 5803 5804 5805 5805
5772 5772 5774 5774 5777 5779 5781 5785 5786 5787 5788 5790 5792 5794 5795 5796 5797 5798 5798 5799 5799 5799 5799 5798 5798 5799 5798 5798 5797 5798 5797 5796 5796 5795 5795 5795 5796 5795 5796 5796 5796 5797 5796
5765 5766 5767 5767 5769 5772 5774 5776 5778 5779 5780 5783 5784 5786 5788 5789 5790 5791 5792 5792 5792 5792 5792 5792 5791 5791 5792 5792 5792 5791 5791 5791 5791 5790 5789 5789 5789 5788 5788 5788 5788 5788 5787
5758 5759 5760 5760 5762 5764 5766 5769 5771 5772 5773 5774 5776 5778 5779 5781 5783 5783 5783 5784 5784 5784 5784 5785 5785 5783 5784 5784 5784 5784 5785 5784 5784 5784 5783 5782 5781 5781 5781 5781 5780 5778 5777
5749 5752 5752 5752 5752 5754 5757 5759 5761 5763 5764 5765 5768 5769 5770 5773 5774 5775 5776 5776 5776 5775 5776 5776 5776 5776 5776 5776 5776 5776 5775 5776 5776 5775 5775 5774 5774 5773 5773 5772 5770 5769 5766
5739 5741 5743 5743 5743 5744 5747 5750 5750 5753 5755 5757 5758 5760 5761 5765 5765 5767 5768 5769 5768 5767 5766 5767 5767 5768 5769 5768 5768 5767 5766 5766 5766 5767 5766 5766 5765 5765 5764 5762 5760 5757 5755
5729 5731 5732 5733 5734 5734 5737 5739 5742 5744 5746 5746 5748 5750 5752 5754 5755 5757 5758 5759 5758 5757 5757 5758 5759 5760 5759 5759 5759 5759 5758 5758 5757 5757 5757 5757 5756 5755 5754 5752 5749 5746 5744
5717 5719 5721 5722 5724 5725 5725 5728 5730 5731 5734 5735 5737 5740 5742 5744 5746 5747 5747 5747 5748 5747 5747 5748 5748 5750 5749 5749 5748 5747 5747 5748 5748 5747 5747 5746 5746 5744 5744 5741 5738 5734 5733
5704 5706 5708 5710 5711 5712 5713 5714 5716 5719 5722 5724 5725 5728 5729 5732 5733 5734 5735 5736 5737 5736 5737 5738 5737 5736 5737 5738 5737 5737 5736 5736 5736 5736 5735 5735 5735 5734 5731 5729 5727 5725 5721
5691 5693 5695 5696 5697 5697 5699 5701 5703 5705 5707 5709 5712 5715 5718 5719 5722 5723 5724 5724 5725 5726 5726 5728 5725 5724 5726 5726 5726 5725 5724 5724 5723 5723 5723 5722 5722 5722 5720 5718 5717 5714 5711
5678 5680 5682 5683 5683 5682 5683 5684 5687 5690 5693 5695 5699 5701 5704 5707 5710 5711 5711 5712 5714 5714 5716 5712 5715 5713 5712 5712 5712 5711 5712 5709 5709 5711 5710 5710 5709 5709 5708 5706 5705 5703 5702
5663 5667 5669 5668 5669 5669 5670 5670 5668 5668 5672 5677 5682 5686 5691 5695 5697 5698 5699 5699 5700 5701 5700 5701 5702 5701 5700 5700 5700 5696 5695 5695 5695 5694 5697 5697 5697 5696 5695 5694 5695 5694 5692
5648 5652 5654 5655 5652 5654 5654 5654 5657 5657 5659 5664 5668 5673 5677 5681 5682 5683 5684 5687 5690 5690 5688 5687 5690 5688 5687 5687 5688 5684 5681 5681 5682 5683 5682 5683 5683 5683 5682 5682 5683 5683 5683
5631 5636 5638 5636 5638 5643 5623 5631 5645 5649 5649 5652 5657 5660 5664 5666 5669 5669 5673 5673 5675 5678 5676 5678 5678 5677 5674 5672 5672 5669 5665 5664 5666 5668 5668 5669 5670 5669 5669 5670 5672 5673 5672
5617 5620 5624 5623 5625 5627 5612 5616 5628 5631 5636 5639 5645 5646 5647 5652 5654 5657 5660 5658 5663 5664 5665 5665 5665 5665 5663 5661 5658 5657 5656 5655 5655 5656 5655 5655 5656 5655 5657 5658 5661 5661 5659
5599 5601 5604 5607 5607 5611 5609 5610 5613 5620 5624 5626 5631 5635 5637 5641 5644 5646 5647 5648 5650 5652 5652 5651 5652 5651 5650 5649 5648 5646 5644 5644 5643 5642 5642 5641 5643 5643 5645 5645 5648 5648 5649
5579 5584 5586 5586 5589 5590 5592 5598 5602 5607 5610 5613 5618 5621 5623 5626 5630 5631 5633 5634 5635 5636 5637 5637 5637 5637 5637 5636 5635 5634 5633 5632 5630 5628 5627 5628 5629 5629 5632 5634 5636 5635 5636
5564 5565 5571 5570 5567 5571 5577 5583 5586 5592 5596 5600 5603 5606 5610 5612 5614 5616 5618 5619 5621 5621 5622 5622 5622 5622 5621 5621 5619 5618 5617 5617 5615 5613 5613 5614 5615 5618 5621 5622 5623 5623 5625
5550 5548 5542 5552 5555 5555 5562 5567 5571 5577 5581 5586 5590 5592 5596 5600 5601 5602 5604 5605 5605 5607 5606 5607 5607 5607 5606 5605 5604 5602 5602 5602 5602 5602 5603 5603 5603 5607 5609 5611 5613 5614 5614
5532 5526 5539 5540 5543 5545 5552 5549 5556 5562 5568 5572 5575 5578 5582 5585 5588 5590 5591 5592 5592 5592 5591 5591 5591 5590 5591 5591 5592 5589 5589 5589 5590 5592 5595 5596 5599 5598 5598 5601 5601 5602 5603
5512 5517 5522 5528 5530 5533 5535 5540 5546 5551 5555 5559 5561 5563 5567 5569 5570 5572 5575 5575 5574 5576 5575 5575 5576 5578 5578 5576 5579 5576 5577 5579 5578 5579 5581 5582 5582 5584 5585 5588 5589 5590 5590
5506 5508 5514 5519 5522 5526 5530 5530 5534 5540 5543 5545 5548 5549 5551 5553 5554 5557 5559 5558 5560 5561 5561 5562 5563 5564 5563 5564 5565 5566 5566 5567 5568 5566 5567 5567 5567 5568 5571 5573 5574 5575 5575
Wind_Speed
25 26 26 24 21 19 20 21 22 22 22 21 21 21 21 22 23 24 24 23 23 24 24 24 25 25 27 26 28 29 31 26 23 20 19 21 20 20 22 23 24 24 25
23 26 27 26 24 23 22 22 23 23 23 23 23 24 24 24 26 26 27 26 25 25 25 26 26 28 30 31 32 31 30 24 25 22 22 23 23 24 25 27 27 27 27
23 25 27 27 26 26 24 23 24 25 25 25 25 26 26 26 26 25 26 25 25 25 26 28 29 30 30 29 31 30 28 21 20 24 26 26 26 27 27 29 30 29 28
26 26 27 28 28 28 27 26 27 27 28 28 28 28 28 27 26 25 25 25 26 26 27 30 29 30 28 31 33 29 24 23 21 19 25 26 28 29 31 32 32 35 34
30 28 28 29 30 29 28 28 28 30 30 31 30 28 28 28 26 26 26 26 27 28 29 30 28 28 26 27 28 22 25 23 24 25 25 26 29 30 33 34 34 35 37
32 33 32 32 31 30 30 29 30 31 33 33 31 30 31 30 29 28 28 28 28 30 31 31 30 30 29 28 25 27 28 26 25 26 24 25 26 28 33 35 36 37 40
34 35 35 36 34 33 34 33 34 35 36 34 34 33 34 33 32 30 30 31 32 32 33 32 29 29 29 28 25 27 26 25 26 25 23 26 28 28 29 34 38 40 44
35 37 38 39 38 38 38 37 38 39 38 38 36 36 37 36 34 32 32 34 34 34 35 36 35 33 33 31 29 29 30 29 31 32 32 30 29 30 31 34 33 37 42
37 39 40 42 43 42 41 40 41 41 41 42 40 40 39 37 35 35 34 35 36 38 39 39 40 39 36 35 35 33 34 35 36 36 34 34 33 33 33 35 40 42 43
41 42 42 46 47 47 46 45 44 44 44 43 43 42 42 40 38 38 38 38 40 42 44 44 44 42 40 40 38 37 37 36 39 38 34 35 35 37 39 41 43 46 47
44 44 46 48 49 50 49 48 48 46 46 47 45 45 44 43 43 41 39 40 45 49 49 50 47 46 43 43 41 40 41 42 40 38 35 34 35 38 41 45 48 51 44
48 50 51 51 51 52 53 53 52 52 50 49 49 48 47 46 44 44 45 46 49 50 50 49 51 51 48 47 46 45 45 44 43 41 39 37 40 40 41 46 51 47 41
54 55 55 56 57 57 57 57 57 55 55 53 52 50 50 49 48 49 49 50 51 53 52 50 53 54 54 50 49 51 49 47 45 43 41 39 39 42 42 44 46 45 40
47 47 52 56 59 61 61 62 61 60 59 58 56 54 52 53 51 51 52 54 55 53 53 51 54 53 51 49 53 56 55 51 48 43 43 43 41 45 43 46 46 43 41
47 47 44 49 55 60 58 57 60 63 63 59 57 57 55 55 54 54 55 56 56 57 56 60 44 52 55 52 54 63 61 58 59 52 49 50 48 49 47 47 44 39 39
57 48 51 50 57 60 58 58 62 66 67 66 60 57 56 55 55 55 56 56 56 58 62 50 48 58 48 50 59 59 60 68 60 54 52 50 53 53 48 49 42 40 41
67 55 56 56 62 63 62 55 52 44 48 54 55 55 55 55 57 57 58 56 55 53 66 60 50 55 53 58 59 57 54 67 63 57 54 57 52 47 47 46 41 40 38
60 66 65 71 68 66 61 54 55 57 43 42 41 47 51 53 56 58 53 52 48 47 38 44 50 58 51 49 53 54 48 53 51 57 47 44 47 45 44 42 42 39 36
69 69 70 77 74 74 66 64 66 47 45 41 45 55 45 52 51 53 52 46 44 47 47 48 46 48 46 46 46 48 51 45 46 51 50 51 48 43 42 42 42 40 37
70 72 75 75 81 83 73 54 50 52 45 41 46 50 47 51 52 49 46 50 48 48 52 47 49 48 47 49 51 54 50 48 48 47 47 49 47 41 42 41 46 43 41
71 72 77 78 85 79 76 57 42 50 49 47 45 48 48 48 50 49 46 47 47 48 57 53 51 53 56 50 51 57 57 56 51 51 53 49 44 41 38 41 46 46 46
67 73 60 63 43 49 48 52 46 52 49 46 46 47 47 46 47 44 46 50 48 57 57 56 55 56 51 53 53 55 56 56 55 58 54 48 47 41 40 43 46 47 47
67 53 45 60 63 41 46 52 54 52 51 47 47 49 48 45 44 49 55 57 58 57 56 58 60 56 51 47 50 54 57 57 55 55 54 49 47 40 44 47 47 48 48
67 51 57 49 41 52 55 42 59 54 52 50 47 48 48 50 53 55 57 58 58 58 56 57 56 51 48 50 52 49 47 47 50 52 51 48 45 44 46 47 50 51 51
31 45 47 37 41 52 58 45 48 49 47 49 51 51 52 53 56 58 60 60 58 57 52 53 50 49 48 49 52 52 51 55 51 53 53 50 48 47 49 53 55 56 54
28 46 40 37 45 50 54 43 44 48 52 53 56 55 56 58 58 58 57 52 54 51 49 48 48 47 46 48 50 49 50 53 56 57 55 53 52 51 50 56 60 59 56
Wind_Direction
243 238 239 238 237 239 246 249 251 254 257 255 257 259 259 259 259 260 261 263 268 271 272 276 277 279 278 277 278 279 282 275 274 266 261 259 254 253 258 258 255 252 251
243 242 243 245 245 241 241 248 254 256 258 256 253 254 254 254 256 256 258 262 265 268 273 277 279 281 285 284 285 284 286 290 274 272 271 263 260 255 257 255 255 261 266
239 242 245 246 247 250 249 251 256 257 256 257 257 256 256 254 254 255 257 259 261 265 271 276 281 285 284 287 289 291 295 288 281 275 270 266 260 257 258 256 256 261 269
239 240 246 249 249 251 250 250 254 257 257 255 256 258 260 261 261 260 261 263 264 267 272 276 280 282 285 293 290 289 293 285 277 269 266 265 266 264 263 260 260 264 272
237 239 245 251 254 257 260 257 256 258 259 259 260 262 263 265 266 265 264 263 266 270 271 275 279 277 287 294 292 282 283 285 281 275 271 272 271 268 264 262 264 269 274
237 241 243 248 253 255 255 256 255 255 258 259 263 262 262 266 266 265 265 266 266 267 270 273 275 270 278 288 286 281 281 280 285 277 274 276 276 278 275 268 268 271 274
245 246 246 249 252 252 255 253 253 254 257 261 261 260 262 263 265 267 268 267 265 266 270 273 269 269 272 281 286 277 274 281 286 286 280 278 274 274 275 277 273 275 277
249 248 248 250 251 253 252 253 254 256 256 256 257 259 261 262 263 266 265 266 266 267 269 270 267 268 270 273 278 275 276 273 284 282 279 278 278 273 272 278 275 279 282
252 250 249 250 252 252 255 255 256 257 257 258 257 258 261 264 264 264 266 266 265 266 267 268 268 268 268 272 274 273 271 275 283 284 279 281 279 272 270 270 278 281 282
247 249 249 249 251 253 253 256 254 257 259 260 260 261 261 262 264 265 265 267 267 266 267 268 269 270 270 272 270 270 270 273 277 279 276 274 274 273 273 273 283 288 282
248 247 248 249 251 255 256 256 258 258 258 259 260 259 261 262 261 263 264 265 265 267 272 274 270 269 269 268 269 270 271 273 273 273 275 275 278 279 282 277 282 289 282
252 251 251 252 253 255 258 259 257 258 258 257 259 260 260 261 262 262 263 264 268 271 273 276 276 270 266 266 267 269 271 271 272 271 273 272 279 281 286 288 285 283 273
253 256 256 255 255 254 254 255 257 257 259 260 259 259 258 259 259 262 264 266 269 273 276 279 281 279 271 268 266 270 269 267 267 266 271 277 282 282 286 289 286 281 273
249 252 252 255 258 259 257 255 255 256 256 256 257 259 260 260 260 262 266 269 271 275 278 282 283 288 283 281 279 272 269 265 261 263 271 273 279 285 283 289 284 275 270
237 250 252 263 265 264 262 260 260 256 253 254 256 258 259 260 261 264 267 269 273 278 281 277 286 297 285 297 300 299 279 289 267 270 267 271 274 283 285 283 275 272 269
241 239 251 255 252 254 257 256 258 251 252 248 248 254 258 262 264 264 266 265 268 273 276 271 282 290 286 295 298 291 289 288 274 264 269 271 276 279 281 278 270 269 269
239 238 240 247 256 256 256 253 250 253 258 252 248 251 256 258 260 262 263 267 271 272 274 271 280 293 284 284 289 292 284 283 274 270 270 271 279 280 278 269 263 265 269
248 241 241 245 248 252 262 255 248 256 264 258 254 255 255 258 260 264 265 260 272 276 280 275 278 285 285 280 282 286 283 276 272 274 282 278 278 275 270 260 261 265 271
251 249 247 250 255 256 252 255 253 261 259 256 255 252 250 260 262 269 264 270 274 271 273 277 281 282 286 285 287 282 281 281 276 274 277 277 273 267 260 261 260 264 267
247 249 252 254 255 252 252 250 261 259 258 253 257 248 262 262 264 262 263 265 268 270 278 273 277 277 283 285 276 280 281 277 275 271 273 272 265 258 256 263 261 263 266
246 253 257 259 256 255 264 247 248 257 257 255 254 254 262 256 256 261 263 268 271 273 275 280 277 279 284 278 278 279 282 277 270 267 267 264 256 250 260 262 262 266 265
248 253 255 262 237 235 265 242 242 251 255 253 253 256 260 254 259 262 268 266 265 270 272 275 275 284 282 274 276 273 272 268 266 265 264 259 251 251 257 259 260 266 264
257 246 235 246 254 252 260 258 250 251 254 253 252 253 255 258 258 261 258 261 264 268 271 276 280 281 281 271 269 269 268 267 268 267 265 257 251 250 257 262 267 270 270
244 241 247 246 257 263 258 231 256 249 251 254 252 253 254 255 259 263 266 267 269 270 273 275 279 276 268 268 266 270 267 265 266 267 267 261 260 259 264 268 270 269 268
260 251 263 244 251 236 245 238 245 246 251 253 252 252 256 259 260 262 265 266 268 271 275 272 269 266 265 264 266 269 268 266 259 260 262 258 257 260 266 269 269 269 268
254 236 235 247 251 242 239 233 249 259 256 253 257 258 259 262 265 266 267 264 266 267 264 261 261 262 263 264 266 268 272 270 261 259 257 257 257 260 267 270 269 268 267